This demonstration page uses our WeatherBlox Daily Observations layout. Learn more.

Left ArrowRight Arrow

Hourly Observations for October 24, 2018

Temp ( °F °C ) Dew Point ( °F °C ) Humidity (%) Winds ( mph kmh ) Pressure ( in mb ) Visibility ( mi km ) Precip ( " mm )
12:51 am 00:51 Clear 56 13.3 54 12.2 93 93 ESE 7 11 29.86 1011 10 16 0.00 0.00
1:51 am 01:51 Clear 54 12.2 53 11.7 97 97 E 5 7 29.88 1012 10 16 0.00 0.00
2:51 am 02:51 Clear 54 12.2 52 11.1 93 93 ESE 6 9 29.88 1012 10 16 0.00 0.00
3:51 am 03:51 Clear 52 11.1 52 11.1 100 100 W 5 7 29.89 1012 10 16 0.00 0.00
4:51 am 04:51 Clear 51 10.6 50 10 96 96 Calm 29.90 1013 10 16 0.00 0.00
5:51 am 05:51 Clear 51 10.6 51 10.6 100 100 E 7 11 29.91 1013 10 16 0.00 0.00
6:51 am 06:51 Sunny 51 10.6 51 10.6 100 100 SE 7 11 29.91 1013 10 16 0.00 0.00
7:51 am 07:51 Sunny 56 13.3 52 11.1 87 87 SE 3 6 29.93 1014 10 16 0.00 0.00
8:51 am 08:51 Sunny 61 16.1 52 11.1 72 72 SE 6 9 29.95 1014 10 16 0.00 0.00
9:51 am 09:51 Sunny 64 17.8 52 11.1 65 65 ESE 6 9 29.95 1014 10 16 0.00 0.00
10:51 am 10:51 Sunny 66 18.9 51 10.6 59 59 Calm 29.93 1014 10 16 0.00 0.00
11:51 am 11:51 Sunny 69 20.6 52 11.1 55 55 Calm 29.91 1013 10 16 0.00 0.00
12:51 pm 12:51 Sunny 71 21.7 50 10 47 47 S 5 7 29.88 1012 10 16 0.00 0.00
1:51 pm 13:51 Sunny 73 22.8 50 10 44 44 VRB 3 6 29.86 1011 10 16 0.00 0.00
2:51 pm 14:51 Sunny 75 23.9 49 9.4 40 40 WSW 7 11 29.85 1011 10 16 0.00 0.00
3:51 pm 15:51 Sunny 76 24.4 47 8.3 36 36 VRB 6 9 29.85 1011 10 16 0.00 0.00
4:51 pm 16:51 Sunny 75 23.9 50 10 41 41 W 9 15 29.85 1011 10 16 0.00 0.00
5:51 pm 17:51 Clear 71 21.7 51 10.6 49 49 W 8 13 29.87 1012 10 16 0.00 0.00
6:51 pm 18:51 Clear 66 18.9 52 11.1 61 61 NW 6 9 29.90 1012 10 16 0.00 0.00
7:51 pm 19:51 Clear 64 17.8 51 10.6 63 63 NW 8 13 29.91 1013 10 16 0.00 0.00
8:51 pm 20:51 Clear 63 17.2 48 8.9 58 58 N 3 6 29.92 1013 10 16 0.00 0.00
9:51 pm 21:51 Clear 59 15 51 10.6 75 75 Calm 29.93 1014 10 16 0.00 0.00
10:51 pm 22:51 Clear 58 14.4 51 10.6 78 78 Calm 29.94 1014 10 16 0.00 0.00
11:51 pm 23:51 Clear 56 13.3 51 10.6 84 84 Calm 29.94 1014 10 16 0.00 0.00

Powered by AerisWeather